User: anonymous
Location: Melbourne
(37.8170°S, 144.9670°E)
Time: 10:43:26
(UTC+10:00)
Language:

CZ-3 R/B - Orbit

View from above orbital plane
View from above orbital plane
View from above satellite
View from above satellite

Ground track
Ground track

The orbit data is extracted from the following two-line orbital elements,

1 29517U 06048B   14112.83743458  .00050883  00000-0  14147-2 0  3631
2 29517 028.5165 289.9801 5348219 209.1012 043.2196 05.15322471 96940
Epoch (UTC): 22 April 2014 20:05:54
Eccentricity: 0.5348219
inclination: 28.5165°
perigee height: 208 km
apogee height: 15352 km
right ascension of ascending node: 289.9801°
argument of perigee: 209.1012°
revolutions per day: 5.15322471
mean anomaly at epoch: 43.2196°
orbit number at epoch: 9694

The dashed part of the orbit path shows where the satellite is in the earth's shadow,  

DLR